CST1005 CYWK-CYQB

Flight info

Callsign CST1005
Flight time 1h 2m
Altitude 36000
Route TADES KAROT6
Aircraft B38M/M-SDE1FGHILORVWXY/HB1

Departure

Time 2026-04-21 13:07
Airport Wabush Airport (CYWK)

Arrival

Time 2026-04-21 14:09
Airport Quebec Jean Lesage International Airport (CYQB)
Time Latitude Longitude Altitude Speed Heading
2026-04-21 12:58 52.92652 -66.87216 1780 ft 0 kts 251°
2026-04-21 13:03 52.92652 -66.87217 1780 ft 0 kts 251°
2026-04-21 13:03 52.92648 -66.87221 1780 ft 0 kts 195°
2026-04-21 13:03 52.92641 -66.87206 1780 ft 5 kts 100°
2026-04-21 13:04 52.92769 -66.87197 1777 ft 17 kts 359°
2026-04-21 13:04 52.92882 -66.87143 1775 ft 16 kts 25°
2026-04-21 13:04 52.92984 -66.87060 1771 ft 16 kts 37°
2026-04-21 13:05 52.93001 -66.86909 1769 ft 13 kts 135°
2026-04-21 13:05 52.92873 -66.86822 1771 ft 8 kts 160°
2026-04-21 13:05 52.92870 -66.86820 1771 ft 0 kts 160°
2026-04-21 13:06 52.92815 -66.86787 1773 ft 39 kts 160°
2026-04-21 13:06 52.92268 -66.86462 1785 ft 123 kts 161°
2026-04-21 13:06 52.91246 -66.85860 1877 ft 180 kts 160°
2026-04-21 13:07 52.90037 -66.85111 2573 ft 195 kts 166°
2026-04-21 13:07 52.88717 -66.84942 3662 ft 197 kts 194°
2026-04-21 13:07 52.87448 -66.85850 4550 ft 212 kts 219°
2026-04-21 13:07 52.86289 -66.87455 5448 ft 231 kts 221°
2026-04-21 13:08 52.84909 -66.89035 6268 ft 255 kts 212°
2026-04-21 13:08 52.83299 -66.90469 7264 ft 271 kts 209°
2026-04-21 13:08 52.81610 -66.91876 8457 ft 277 kts 209°
2026-04-21 13:08 52.79903 -66.93331 9591 ft 283 kts 210°
2026-04-21 13:09 52.78159 -66.94861 10569 ft 293 kts 211°
2026-04-21 13:09 52.76306 -66.96511 11210 ft 314 kts 211°
2026-04-21 13:09 52.74319 -66.98286 11749 ft 336 kts 210°
2026-04-21 13:09 52.72229 -67.00145 12262 ft 357 kts 210°
2026-04-21 13:10 52.69986 -67.02129 13013 ft 369 kts 210°
2026-04-21 13:10 52.67724 -67.04123 13941 ft 374 kts 210°
2026-04-21 13:10 52.65437 -67.06136 14835 ft 380 kts 210°
2026-04-21 13:10 52.63109 -67.08183 15777 ft 382 kts 210°
2026-04-21 13:11 52.60756 -67.10252 16614 ft 386 kts 210°
2026-04-21 13:11 52.58379 -67.12343 17406 ft 391 kts 210°
2026-04-21 13:11 52.55999 -67.14435 18162 ft 394 kts 210°
2026-04-21 13:11 52.53563 -67.16573 18851 ft 399 kts 211°
2026-04-21 13:12 52.51126 -67.18711 19536 ft 402 kts 211°
2026-04-21 13:12 52.48647 -67.20884 20175 ft 407 kts 211°
2026-04-21 13:12 52.46146 -67.23074 20745 ft 411 kts 211°
2026-04-21 13:12 52.43619 -67.25284 21385 ft 414 kts 211°
2026-04-21 13:13 52.41063 -67.27517 21893 ft 419 kts 212°
2026-04-21 13:13 52.38498 -67.29754 22433 ft 422 kts 212°
2026-04-21 13:13 52.35909 -67.32009 22933 ft 426 kts 212°
2026-04-21 13:13 52.33295 -67.34282 23377 ft 431 kts 212°
2026-04-21 13:14 52.30647 -67.36583 23801 ft 436 kts 212°
2026-04-21 13:14 52.27959 -67.38915 24308 ft 437 kts 212°
2026-04-21 13:14 52.25263 -67.41254 24630 ft 444 kts 212°
2026-04-21 13:14 52.22561 -67.43591 25164 ft 444 kts 212°
2026-04-21 13:15 52.19843 -67.45937 25582 ft 447 kts 212°
2026-04-21 13:15 52.17087 -67.48312 26010 ft 450 kts 212°
2026-04-21 13:15 52.14327 -67.50687 26496 ft 451 kts 212°
2026-04-21 13:15 52.11528 -67.53094 26891 ft 455 kts 212°
2026-04-21 13:16 52.08745 -67.55484 27279 ft 458 kts 212°
2026-04-21 13:16 52.05927 -67.57903 27646 ft 460 kts 212°
2026-04-21 13:16 52.03089 -67.60333 28034 ft 462 kts 212°
2026-04-21 13:16 52.00249 -67.62760 28409 ft 463 kts 211°
2026-04-21 13:17 51.97421 -67.65173 28918 ft 461 kts 210°
2026-04-21 13:17 51.94600 -67.67572 29452 ft 457 kts 210°
2026-04-21 13:17 51.91805 -67.69947 29886 ft 456 kts 210°
2026-04-21 13:17 51.89004 -67.72326 30293 ft 455 kts 210°
2026-04-21 13:18 51.86397 -67.74538 30577 ft 455 kts 210°
2026-04-21 13:18 51.83608 -67.76901 30917 ft 454 kts 210°
2026-04-21 13:18 51.80819 -67.79261 31237 ft 453 kts 209°
2026-04-21 13:18 51.78037 -67.81612 31540 ft 453 kts 209°
2026-04-21 13:19 51.75264 -67.83953 31846 ft 453 kts 209°
2026-04-21 13:19 51.72480 -67.86298 32189 ft 451 kts 209°
2026-04-21 13:19 51.69742 -67.88601 32465 ft 450 kts 209°
2026-04-21 13:19 51.66981 -67.90920 32724 ft 450 kts 208°
2026-04-21 13:20 51.64208 -67.93246 32977 ft 450 kts 208°
2026-04-21 13:20 51.61435 -67.95570 33297 ft 448 kts 208°
2026-04-21 13:20 51.58703 -67.97855 33621 ft 448 kts 208°
2026-04-21 13:20 51.55928 -68.00172 33978 ft 446 kts 208°
2026-04-21 13:21 51.53185 -68.02461 34339 ft 444 kts 208°
2026-04-21 13:21 51.50461 -68.04730 34610 ft 444 kts 208°
2026-04-21 13:21 51.47752 -68.06984 34907 ft 444 kts 208°
2026-04-21 13:21 51.45006 -68.09265 35231 ft 442 kts 208°
2026-04-21 13:22 51.42300 -68.11510 35391 ft 444 kts 208°
2026-04-21 13:22 51.39544 -68.13793 35689 ft 443 kts 208°
2026-04-21 13:22 51.36828 -68.16040 35948 ft 442 kts 208°
2026-04-21 13:22 51.34094 -68.18299 36007 ft 447 kts 208°
2026-04-21 13:23 51.28568 -68.22859 36031 ft 446 kts 208°
2026-04-21 13:23 51.23113 -68.27348 36030 ft 442 kts 208°
2026-04-21 13:24 51.17629 -68.31845 36008 ft 444 kts 208°
2026-04-21 13:24 51.12175 -68.36307 35986 ft 445 kts 208°
2026-04-21 13:25 51.06678 -68.40792 35968 ft 444 kts 208°
2026-04-21 13:25 51.01212 -68.45240 35953 ft 443 kts 208°
2026-04-21 13:26 50.95737 -68.49682 35967 ft 444 kts 208°
2026-04-21 13:26 50.90231 -68.54138 36001 ft 445 kts 208°
2026-04-21 13:27 50.84978 -68.58379 36019 ft 445 kts 208°
2026-04-21 13:27 50.79485 -68.62802 36036 ft 445 kts 208°
2026-04-21 13:28 50.74000 -68.67206 36044 ft 444 kts 207°
2026-04-21 13:28 50.68494 -68.71616 36048 ft 445 kts 207°
2026-04-21 13:29 50.63010 -68.75996 36039 ft 446 kts 207°
2026-04-21 13:29 50.57496 -68.80392 36025 ft 446 kts 208°
2026-04-21 13:30 50.51994 -68.84765 36010 ft 445 kts 208°
2026-04-21 13:30 50.46458 -68.89151 36001 ft 445 kts 208°
2026-04-21 13:31 50.40959 -68.93497 35994 ft 446 kts 208°
2026-04-21 13:31 50.35437 -68.97851 35994 ft 445 kts 208°
2026-04-21 13:32 50.29922 -69.02187 36004 ft 445 kts 208°
2026-04-21 13:32 50.24399 -69.06518 36014 ft 446 kts 208°
2026-04-21 13:33 50.18894 -69.10825 36021 ft 446 kts 208°
2026-04-21 13:33 50.13331 -69.15166 36028 ft 446 kts 208°
2026-04-21 13:34 50.07818 -69.19456 36020 ft 447 kts 208°
2026-04-21 13:34 50.02250 -69.23778 36007 ft 447 kts 208°
2026-04-21 13:35 49.96728 -69.28052 36006 ft 447 kts 208°
2026-04-21 13:35 49.91188 -69.32328 36020 ft 446 kts 208°
2026-04-21 13:36 49.85872 -69.36422 36028 ft 447 kts 208°
2026-04-21 13:36 49.80325 -69.40685 36038 ft 448 kts 208°
2026-04-21 13:37 49.74765 -69.44945 36050 ft 448 kts 208°
2026-04-21 13:37 49.69192 -69.49205 36061 ft 448 kts 208°
2026-04-21 13:38 49.63597 -69.53471 36061 ft 449 kts 208°
2026-04-21 13:38 49.58030 -69.57705 36059 ft 449 kts 208°
2026-04-21 13:39 49.52443 -69.61942 36054 ft 448 kts 208°
2026-04-21 13:39 49.46902 -69.66131 36054 ft 448 kts 208°
2026-04-21 13:40 49.41361 -69.70312 36047 ft 449 kts 208°
2026-04-21 13:40 49.35786 -69.74508 36043 ft 450 kts 208°
2026-04-21 13:41 49.30190 -69.78711 36038 ft 450 kts 208°
2026-04-21 13:41 49.24582 -69.82912 36038 ft 451 kts 208°
2026-04-21 13:42 49.18943 -69.87125 36035 ft 451 kts 208°
2026-04-21 13:42 49.13327 -69.91309 36026 ft 451 kts 208°
2026-04-21 13:43 49.10530 -69.93388 36170 ft 446 kts 208°
2026-04-21 13:43 49.07740 -69.95458 36210 ft 450 kts 208°
2026-04-21 13:43 49.02095 -69.99644 36192 ft 455 kts 208°
2026-04-21 13:44 48.96450 -70.03821 36194 ft 451 kts 208°
2026-04-21 13:44 48.90862 -70.07938 36194 ft 450 kts 208°
2026-04-21 13:45 48.85456 -70.11912 36198 ft 452 kts 208°
2026-04-21 13:45 48.79807 -70.16060 36193 ft 454 kts 208°
2026-04-21 13:46 48.74155 -70.20201 36193 ft 454 kts 208°
2026-04-21 13:46 48.68478 -70.24348 36186 ft 454 kts 208°
2026-04-21 13:47 48.62855 -70.28442 36187 ft 452 kts 208°
2026-04-21 13:47 48.57212 -70.32539 36191 ft 452 kts 208°
2026-04-21 13:48 48.51538 -70.36649 36192 ft 453 kts 208°
2026-04-21 13:48 48.45886 -70.40735 36209 ft 453 kts 208°
2026-04-21 13:49 48.40208 -70.44830 36238 ft 453 kts 208°
2026-04-21 13:49 48.34548 -70.48902 36252 ft 454 kts 208°
2026-04-21 13:50 48.28872 -70.52976 36269 ft 454 kts 208°
2026-04-21 13:50 48.23201 -70.57035 36262 ft 455 kts 208°
2026-04-21 13:51 48.20355 -70.59069 36017 ft 455 kts 209°
2026-04-21 13:51 48.17489 -70.61114 35470 ft 457 kts 209°
2026-04-21 13:51 48.14616 -70.63164 34761 ft 463 kts 209°
2026-04-21 13:51 48.11746 -70.65213 34070 ft 467 kts 208°
2026-04-21 13:52 48.08837 -70.67284 33721 ft 462 kts 208°
2026-04-21 13:52 48.05936 -70.69343 33324 ft 460 kts 208°
2026-04-21 13:52 48.03078 -70.71368 32941 ft 457 kts 208°
2026-04-21 13:52 48.00243 -70.73374 32552 ft 456 kts 208°
2026-04-21 13:53 47.97354 -70.75415 32118 ft 455 kts 209°
2026-04-21 13:53 47.94518 -70.77417 31658 ft 455 kts 208°
2026-04-21 13:53 47.91699 -70.79404 31210 ft 454 kts 208°
2026-04-21 13:53 47.88851 -70.81409 30642 ft 455 kts 209°
2026-04-21 13:54 47.86031 -70.83393 29927 ft 458 kts 208°
2026-04-21 13:54 47.83148 -70.85422 29265 ft 458 kts 208°
2026-04-21 13:54 47.80350 -70.87388 28525 ft 458 kts 208°
2026-04-21 13:54 47.77496 -70.89391 27934 ft 455 kts 208°
2026-04-21 13:55 47.74646 -70.91383 27390 ft 450 kts 208°
2026-04-21 13:55 47.71827 -70.93348 26795 ft 446 kts 208°
2026-04-21 13:55 47.69077 -70.95258 26234 ft 441 kts 208°
2026-04-21 13:55 47.66267 -70.97248 25398 ft 448 kts 210°
2026-04-21 13:56 47.63511 -70.99228 24556 ft 440 kts 209°
2026-04-21 13:56 47.60807 -71.01115 23744 ft 431 kts 208°
2026-04-21 13:56 47.58135 -71.02940 23020 ft 420 kts 208°
2026-04-21 13:56 47.55506 -71.04713 22166 ft 413 kts 208°
2026-04-21 13:57 47.52902 -71.06461 21134 ft 410 kts 208°
2026-04-21 13:57 47.50356 -71.08175 20190 ft 405 kts 208°
2026-04-21 13:57 47.47812 -71.09895 19250 ft 400 kts 208°
2026-04-21 13:57 47.45307 -71.11587 18368 ft 395 kts 207°
2026-04-21 13:58 47.42819 -71.13236 17452 ft 390 kts 207°
2026-04-21 13:58 47.40404 -71.14823 16603 ft 385 kts 207°
2026-04-21 13:58 47.37977 -71.16430 15728 ft 379 kts 207°
2026-04-21 13:58 47.35615 -71.18013 14878 ft 373 kts 207°
2026-04-21 13:59 47.33249 -71.19613 13986 ft 368 kts 207°
2026-04-21 13:59 47.30971 -71.21161 13140 ft 363 kts 207°
2026-04-21 13:59 47.28702 -71.22705 12292 ft 357 kts 207°
2026-04-21 13:59 47.26485 -71.24212 11422 ft 353 kts 207°
2026-04-21 14:00 47.24231 -71.25620 10558 ft 349 kts 199°
2026-04-21 14:00 47.21878 -71.26352 9740 ft 346 kts 189°
2026-04-21 14:00 47.19526 -71.26649 8922 ft 342 kts 185°
2026-04-21 14:00 47.17161 -71.26867 8100 ft 337 kts 186°
2026-04-21 14:01 47.14852 -71.27165 7263 ft 333 kts 188°
2026-04-21 14:01 47.12566 -71.27550 6765 ft 328 kts 187°
2026-04-21 14:01 47.10309 -71.27554 6470 ft 320 kts 173°
2026-04-21 14:01 47.08203 -71.26681 6207 ft 314 kts 160°
2026-04-21 14:02 47.06267 -71.25399 6193 ft 298 kts 155°
2026-04-21 14:02 47.04449 -71.24107 6236 ft 281 kts 156°
2026-04-21 14:02 47.02705 -71.22948 6236 ft 268 kts 159°
2026-04-21 14:03 46.99358 -71.20937 6238 ft 262 kts 160°
2026-04-21 14:03 46.97644 -71.19939 5996 ft 264 kts 160°
2026-04-21 14:03 46.95942 -71.18945 5666 ft 264 kts 160°
2026-04-21 14:03 46.94236 -71.17944 5337 ft 264 kts 160°
2026-04-21 14:04 46.92528 -71.16989 5003 ft 264 kts 165°
2026-04-21 14:04 46.90719 -71.16623 4722 ft 258 kts 186°
2026-04-21 14:04 46.89004 -71.17045 4598 ft 248 kts 195°
2026-04-21 14:04 46.87366 -71.17615 4465 ft 241 kts 195°
2026-04-21 14:05 46.85745 -71.18104 4379 ft 230 kts 193°
2026-04-21 14:05 46.84208 -71.18494 4060 ft 227 kts 192°
2026-04-21 14:05 46.82629 -71.18875 3556 ft 231 kts 192°
2026-04-21 14:05 46.81084 -71.19446 2986 ft 231 kts 204°
2026-04-21 14:06 46.79742 -71.20673 2560 ft 224 kts 224°
2026-04-21 14:06 46.78806 -71.22373 2289 ft 212 kts 238°
2026-04-21 14:06 46.78112 -71.24226 2024 ft 203 kts 246°
2026-04-21 14:06 46.77723 -71.26137 1785 ft 195 kts 263°
2026-04-21 14:07 46.77734 -71.28077 1561 ft 187 kts 277°
2026-04-21 14:07 46.77927 -71.29881 1367 ft 178 kts 279°
2026-04-21 14:07 46.78103 -71.31598 1073 ft 167 kts 278°
2026-04-21 14:07 46.78243 -71.33222 865 ft 154 kts 278°
2026-04-21 14:08 46.78371 -71.34687 711 ft 144 kts 279°
2026-04-21 14:08 46.78516 -71.36120 523 ft 144 kts 277°
2026-04-21 14:08 46.78649 -71.37554 355 ft 142 kts 279°
2026-04-21 14:08 46.78782 -71.38929 237 ft 119 kts 278°
2026-04-21 14:09 46.78857 -71.39753 237 ft 51 kts 278°
2026-04-21 14:09 46.78902 -71.40185 236 ft 20 kts 284°
2026-04-21 14:09 46.78891 -71.40276 235 ft 4 kts 154°
2026-04-21 14:09 46.78884 -71.40193 237 ft 15 kts 91°
2026-04-21 14:10 46.78884 -71.39981 237 ft 24 kts 95°
2026-04-21 14:10 46.78876 -71.39899 237 ft 25 kts 99°
2026-04-21 14:10 46.78936 -71.39275 238 ft 24 kts 41°
2026-04-21 14:11 46.79062 -71.39094 235 ft 25 kts 44°
2026-04-21 14:11 46.79174 -71.38942 234 ft 16 kts 45°
2026-04-21 14:11 46.79179 -71.38821 234 ft 11 kts 142°
2026-04-21 14:11 46.79111 -71.38763 234 ft 14 kts 150°
2026-04-21 14:12 46.79048 -71.38660 234 ft 11 kts 104°
2026-04-21 14:12 46.79052 -71.38557 234 ft 9 kts 75°
2026-04-21 14:12 46.79059 -71.38515 234 ft 0 kts 77°